Regional Weather Roundup
Issued by NWS

Home | Current Version | Previous Version | Text Only | Print | Product List | Glossary Off
Versions: 1 2 3 4 5 6 7 8 9 10 11 12 13 14 15 16 17 18 19 20 21 22 23 24 25 26 27 28 29 30 31 32 33 34 35 36 37 38 39 40 41 42 43 44 45 46 47 48 49 50

000
ASUS43 KMKX 271311
RWRWI

WISCONSIN REGIONAL WEATHER ROUNDUP
NATIONAL WEATHER SERVICE MILWAUKEE/SULLIVAN WI
800 AM CDT WED AUG 27 2014

NOTE: "FAIR" INDICATES FEW OR NO CLOUDS BELOW 12,000 FEET WITH NO
SIGNIFICANT WEATHER AND/OR OBSTRUCTIONS TO VISIBILITY.

WIZ001-002-006>008-014>016-023>028-271400-
NORTHWEST WISCONSIN

CITY           SKY/WX    TMP DP  RH WIND       PRES   REMARKS
SUPERIOR ARPT  SUNNY     53  53  97 SW3       30.21S
ASHLAND        SUNNY     56  53  90 W3        30.22R
HAYWARD        SUNNY     55  54  96 NE3       30.22R
SIREN          SUNNY     57  53  85 CALM      30.22R
RICE LAKE      SUNNY     57  53  87 CALM      30.22S
LADYSMITH      SUNNY     58  54  85 N3        30.23R
EAU CLAIRE     SUNNY     61  57  87 NE3       30.20R
MENOMONIE      SUNNY     61  57  87 CALM      30.21S
NEW RICHMOND   SUNNY     59  56  88 E3        30.22R
OSCEOLA        MOSUNNY   59  58  97 CALM      30.24R
$$

WIZ003>005-009-010-017-018-271400-
NORTH CENTRAL WISCONSIN

CITY           SKY/WX    TMP DP  RH WIND       PRES   REMARKS
WOODRUFF       SUNNY     57  55  93 N5        30.20R
RHINELANDER    MOSUNNY   56  54  93 CALM      30.20S
EAGLE RIVER    PTSUNNY   55  53  94 NW5       30.20R
LAND O LAKES   MOSUNNY   55  53  93 N3        30.21R
PHILLIPS       SUNNY     55  53  92 NW6       30.21R
TOMAHAWK       SUNNY     55  54  97 CALM      30.20S
MEDFORD        SUNNY     56  55  98 CALM      30.20S
MERRILL        SUNNY     56  56 100 CALM      30.20R
$$

WIZ029-030-035-036-043>047-271400-
CENTRAL WISCONSIN

CITY           SKY/WX    TMP DP  RH WIND       PRES   REMARKS
WAUSAU         MOSUNNY   59  57  93 CALM      30.19R
MOSINEE        SUNNY     61  55  82 CALM      30.21R
MARSHFIELD     SUNNY     62  56  80 CALM      30.20R
STEVENS POINT  MOSUNNY   58  54  86 CALM      30.20R
WAUPACA        MOSUNNY   62  57  83 N3        30.19R
WAUTOMA        HVY RAIN  61  56  83 CALM      30.19S
WISC RAPIDS    MOSUNNY   63  53  70 CALM      30.21R
CAMP DOUGLAS   MOSUNNY   62  62 100 CALM      30.19R
$$

WIZ011>013-019>022-031-037>040-048>050-271400-
NORTHEAST WISCONSIN

CITY           SKY/WX    TMP DP  RH WIND       PRES   REMARKS
ANTIGO         PTSUNNY   57  55  93 CALM      30.20S
STURGEON BAY   PTSUNNY   61  54  77 CALM      30.19R
GREEN BAY      MOSUNNY   62  55  77 N6        30.18S
MANITOWOC      LGT RAIN  62  60  93 CALM      30.17F
APPLETON       MOSUNNY   59  54  82 N8        30.18S
CLINTONVILLE   MOSUNNY   59  54  82 N5        30.19R
OSHKOSH        MOSUNNY   65  59  81 SE8       30.17R
$$

WIZ032>034-041-042-053>061-271400-
SOUTHWEST WISCONSIN

CITY           SKY/WX    TMP DP  RH WIND       PRES   REMARKS
LA CROSSE      CLOUDY    65  58  78 SE3       30.18R
SPARTA         CLOUDY    59  58  94 CALM      30.20R
VIROQUA        CLOUDY    61  60  96 CALM      30.20R
BOSCOBEL       SUNNY     64  60  87 CALM      30.18R
PRAIRIE DU CHI SUNNY     62  58  88 CALM      30.18R
PLATTEVILLE    FAIR      65  59  81 E3        30.19R
$$

WIZ056-057-062-063-064-067-068-271400-
SOUTH CENTRAL WISCONSIN

CITY           SKY/WX    TMP DP  RH WIND       PRES   REMARKS
BARABOO/DELLS  PTSUNNY   61  55  80 CALM      30.18R
LONE ROCK      MOSUNNY   67  59  75 CALM      30.17S
WATERTOWN      MOSUNNY   62  60  93 CALM      30.16R
MADISON        PTSUNNY   63  58  83 CALM      30.16F
MIDDLETON      FAIR      63  62  94 CALM      30.18R
MONROE         SUNNY     63  59  88 NE6       30.16S
JANESVILLE     MOSUNNY   66  57  72 NE8       30.15F
$$

WIZ051-052-058>065-066-070>072-271400-
SOUTHEAST WISCONSIN

CITY           SKY/WX    TMP DP  RH WIND       PRES   REMARKS
MILWAUKEE      MOSUNNY   67  60  78 N3        30.15F
WAUKESHA       MOSUNNY   63  57  82 NE3       30.17F
MILWAUKEE/TIMM SUNNY     64  57  77 CALM      30.17S
RACINE         SUNNY     67  61  81 N5        30.17S
BURLINGTON     SUNNY     63  59  86 CALM      30.16S
KENOSHA        SUNNY     66  60  81 N6        30.16S
FOND DU LAC    CLOUDY    63  58  83 CALM      30.17S
SHEBOYGAN      PTSUNNY   64  58  80 E7        30.15F
WEST BEND      CLOUDY    61  57  88 NE3       30.16F
JUNEAU         SUNNY     63  58  84 NE3       30.18R
$$

LSZ147-162-271400-
LAKE SUPERIOR

STATION/POSITION TIME  TEMP    WIND        PRES    WAVE
                       AIR SEA DIR/SP/G            HT/PER
                 (UTC) (F)     (DEG/KT/KT) (MB)    (FT/S)
W MID LAKE BUOY  1250   56 54  280/  6/  8 1022.4R   0
DEVILS ISLAND    1300   57     310/  6/  7 1023.0R
PORT WING        1240   54     150/  2/  3 1023.0R
SAXON HARBOR     1200   57      CALM  /  4 1022.7R
$$

LMZ867-665-643>646-271400-
LAKE MICHIGAN

STATION/POSITION TIME  TEMP    WIND        PRES    WAVE
                       AIR SEA DIR/SP/G            HT/PER
                 (UTC) (F)     (DEG/KT/KT) (MB)    (FT/S)
N MID LAKE BUOY  1250   61 65  360/  2/  4 1021.5R   1/ 3
NORTHPORT PIER   1200   61     360/  7/  9 1021.3R
SISTER BAY       1211   60        CALM       N/A
KEWAUNEE LAKESHO 1200   63      90/  5/  6 1020.4R
SHEBOYGAN LAKESH 1300   65 66   80/ 12/ 13 1021.1F
ATWATER BUOY     1300   66     340/  8/ 10 1022.2R
MILWAUKEE LAKESH 1200   66     350/  7/  9   N/A
S MID LAKE BUOY  1250   68 69   80/  4/  6 1020.7F   0
KENOSHA   LAKESH 1300   67     350/  7/  9 1020.7S
$$

TC  - TEMPERATURE IN CELSIUS
VSB - VISIBILITY IN STATUTE MILES
WCI - WIND CHILL INDEX
HX  - HEAT INDEX



USA.gov is the U.S. government's official web portal to all federal, state and local government web resources and services.